Погода Игнасино

Погода Игнасино : погода сейчас, прогноз погоды и архив. Всё, что Вы хотите узнать о погоде Игнасино!

Хотите узнать прогноз погоды Игнасино? Тогда Вам сюда: Погода Игнасино

Поиск расширенной информации на нашем сайте:

Другие новости

Новости СМИ2

Главная страница сайта

Новости сайта

03.07.2017

Напоминаем, что на нашем специализированном сайте Метеоцентр.Азия вы можете получить высокодетализированные автоматические прогнозы погоды по пунктам России, СНГ и мира в авиационном формате (включающие направление и скорость ветра, видимость, явления погоды, количество и форму облачности, нижнюю и верхнюю границу облачности).

Рекомендуем: Нижнее белье для полных красивое женское нижнее белье.

Погода Игнасино - сегодня

Время (UTC), дата Ветер
(°,м/с) 
Видим.   Явления Облачность Т
(°С)
Тd
(°С)
f(%) Тe
(°С)
Pmin
(гПа)
dP
(гПа)
Po
(мм)
O2
(г/м3)
Тmin Tmax R s Состояние
почвы
21 21.07.17 360 (С) 29000 м  слаб. ливневой дождь  10/8 600 м кучево-дожд., средняя 
[Cb cap|Ac lent]
+13.2 +11.9 92 +18  1005.8  0.2  729  278           
00 22.07.17 тихо ()   18000 м  слаб. ливневой дождь  10/10 600 м кучево-дожд. 
[Cb cap]
+15.2 +14.2 94 +23  1004.2  -1.3  728  275  +11.4      влажная 
03 22.07.17 320 (СЗ) 21000 м  слаб. ливневой дождь  10/10 600 м кучево-дожд. 
[Cb cap]
+16 +14.4 90 +25  1003.2  -0.8  727  274           
06 22.07.17 300 (СЗ) 19000 м  слаб. ливневой дождь  10/9 600 м кучево-дожд., верхняя 
[Cb cap|Ci fib]
+18 +15.1 83 +29  1001.7  -1.3  726  271           
09 22.07.17 320 (СЗ) 20000 м    9/9 600 м кучево-дожд. 
[Cb cap]
+17.9 +14.8 82 +27  1002.7  0.9  727  272           
12 22.07.17 320 (СЗ) 20000 м    9/9 1000 м 
[Sc diur, vesp]
+17.3 +13.9 80 +26  1004.4  1.6  728  273    +19.7     
15 22.07.17 360 (С) 20000 м    9/9 600 м кучево-дожд. 
[Cb cap]
+13.2 +12.4 95 +19  1005.9  729  278           
18 22.07.17 310 (СЗ) 20000 м    10/6 600 м кучево-дожд., средняя 
[Cb cap|Ac trans]
+14.9 +11 77 +18  1006.7  0.9  729  277           
21 22.07.17 320 (СЗ) 20000 м  в посл. час ливневой дождь  10/10 600 м кучево-дожд. 
[Cb cap]
+12.1 +10.2 88 +14  1007.9  0.8  730  280           
00 23.07.17 280 (З) 23000 м  слаб. ливневой дождь  10/10 600 м кучево-дожд. 
[Cb cap]
+11.5 +10.1 91 +13  1008.7  0.8  731  281  +11.2      влажная 
03 23.07.17 300 (СЗ) 20000 м  {ливн. осадки}  10/10 600 м кучево-дожд. 
[Cb cap]
+16 +11 72 +19  1007.5  -0.6  730  276           
06 23.07.17 330 (СЗ) 20000 м  {ливн. осадки}  10/8 600 м кучево-дожд., средняя 
[Cb cap|Ac trans]
+17.9 +7.6 51 +19  1006.9  -0.4  730  275           
09 23.07.17 330 (СЗ) 20000 м    9/6 600 м кучево-дожд., средняя 
[Cb cap|Ac trans]
+17.5 +6.7 49 +18  1007.3  0.3  730  275           
12 23.07.17 310 (СЗ) 20000 м    10/8 600 м кучево-дожд., верхняя 
[Cb cap|Ci sp]
+14.8 +7.8 63 +15  1008.5  0.8  731  278    +19.6  0.0     
15 23.07.17 320 (СЗ) 20000 м    1/0 средняя 
[Ac lent]
+12.2 +7.5 73 +12  1009.2  0.4  731  281           
18 23.07.17 320 (СЗ) 20000 м    1/0 средняя 
[Ac lent]
+10.7 +6.8 77 +10  1009.1  -0.3  731  282           
21 23.07.17 310 (СЗ) 20000 м    9/9 1000 м 
[Sc]
+10.7 +6.3 74 +10  1008.8  -0.3  730  282           
00 24.07.17 330 (СЗ) 20000 м    4/0 средняя 
[Ac trans]
+12.8 +7.2 69 +13  1008.7  0.2  731  280  +10.5        влажная 
03 24.07.17 350 (С) 20000 м    6/4 1000 м верхняя 
[Cu med, cong|Ci sp]
+20.1 +5.2 38 +20  1007.1  -0.7  730  273           
06 24.07.17 330 (СЗ) 3{11}  20000 м    8/5 1000 м верхняя 
[Cu med, cong|Ci ing]
+22.3 +5.7 34 +22  1006.5  -0.4  730  271           
09 24.07.17 300 (СЗ) 20000 м    6/3 1000 м средняя 
[Sc diur, vesp|Ac trans]
+22.7 +6 34 +23  1006  -0.4  729  270           
12 24.07.17 340 (С) 20000 м    4/3 1000 м средняя 
[Sc diur, vesp|Ac trans]
+14.2 +11.5 84 +19  1007.7  0.8  730  277    +23.1       
15 24.07.17 360 (С) 20000 м    ясно 
+8.3 +7.5 95 +8  1009.8  1.2  731  285           
18 24.07.17 030 (СВ) 20000 м    ясно 
+4.6 +4 96 +5  1010.7  0.4  731  289           
21 24.07.17 010 (С) 0500 м  туман  ?/?  
+4.5 +4.1 97 +5  1011.1  0.4  732  289           
Время (UTC), дата Ветер
(°,м/с) 
Видим.   Явления Облачность Т
(°С)
Тd
(°С)
f(%) Тe
(°С)
Pmin
(гПа)
dP
(гПа)
Po
(мм)
O2
(г/м3)
Тmin Tmax R s Состояние
почвы

Для получения пояснительной информации подведите курсор к названию столбца.

ПОГОДА Игнасино - архив

Всё, что Вы хотите узнать о погоде Игнасино - удобно и подробно!

Выберите нужную дату (начиная с 1 января 2015* года) и нажмите кнопку "Найти".
Будут отображены архивные сводки погоды по пункту Игнасино, начиная с указанной даты.


Отображать данные в формате CSV (для использования в таблицах Excel)


Внимание! Наш архив погоды предназначен исключительно для личного некоммерческого использования в познавательных целях. Если Вам необходимы официальные справки о состоянии погоды (для производственных, юридических, коммерческих и т.п. целей), обращайтесь в органы Росгидромета.

*Примечание: данная дата относится к архиву по метеостанциям СССР (Россия, СНГ, Балтия).
Архив по метеостанциям Зарубежной Европы и Азии (кроме Китая) хранится 10 дней, по другим регионам земного шара (Китай, Африка, Америка, Австралия, Океания) - 1 день.

Игнасино - район местоположения метеостанции


Название, широта, долгота, высота метеостанции:
Игнасино 53.5°ш. 122.4°д. 295 м над ур. моря [Российская Федерация]

Дополнительная информация

В oтличие oт бoльшинства пoгoдных сайтoв мы публикуем пoдрoбную метеoинфoрмацию в детальнoм прoфессиoнальнoм фoрмате.

Характеристики температуры и влажнoсти вoздуха измеряются на высoте 2 м в тени вдали oт зданий и деревьев.
Скoрoсть ветра измеряется на высoте 10 м (на урoвне рoста челoвека скoрoсть ветра ниже в 1.5-2 раза). Если метеoстанция нахoдится в гoрoде или в лесу, тo скoрoсть ветра занижена на 2-4 м/с пo сравнению с oткрытым местoм. Скoрoсть ветра над акватoриями крупных рек и oзёр, а также на вершинах хoлмoв на 2-5 м/с выше, чем в oбычных услoвиях.
Атмoсфернoе давление в разных тoчках местнoсти мoжет значительнo oтличаться oт давления на метеoстанции, в зависимoсти oт услoвий рельефа (при пoдъёме на 10 м давление пoнижается примернo на 1 мм рт.ст.).